Date String (YYYY-MM-DD hh:mm:ss) UTC,Instrument flags,absolute air pressure of the measurement (hPa),sample flow rate (lpm),inlet stack bypass flow (lpm),air temperature of the measurement (°C),ambient temperature measured by the external sensor (°C),aerosol sample conditioner tube jacket temperature (°C),OPC LED temperature (°C),internal box temperature (°C),relative humidity of the measurement (%),span deviation,mass concentration of particles derived from Lorenz-Mie calculation of OPC scattering (μg/m³),mass concentration of particles derived from Lorenz-Mie calculation of OPC scattering (μg/m³),mass concentration of particles derived from Lorenz-Mie calculation of OPC scattering (μg/m³)
DateTimeUTC,F1_M11,P_M11,Q1_M11,Q2_M11,T1_M11,T2_M11,T3_M11,T4_M11,T5_M11,U1_M11,ZSPAN_M11,X2_M11,X0_M11,X1_M11
2024-05-23 20:00:00,SystemResetWarning,0816.9,5.01,000.00,029.7,028.5,000.0,038.3,031.3,009.2,0000.0,0005.13,0015.04,0003.44
2024-05-23 20:01:00,SystemResetWarning,0816.9,5.01,000.00,029.8,028.7,000.0,038.2,031.4,009.4,0000.0,0005.11,0014.66,0003.43
2024-05-23 20:02:00,SystemResetWarning,0816.9,4.99,000.00,029.8,028.9,000.0,038.2,031.5,009.9,0000.0,0005.07,0015.00,0003.41
2024-05-23 20:03:00,SystemResetWarning,0816.9,5.00,000.00,029.9,029.0,000.0,038.2,031.6,009.2,0000.0,0005.04,0015.66,0003.40
2024-05-23 20:04:00,SystemResetWarning,0816.9,5.01,000.00,029.9,029.2,000.0,038.2,031.7,009.3,0000.0,0004.98,0016.47,0003.38
2024-05-23 20:05:00,SystemResetWarning,0816.9,5.01,000.00,030.0,029.3,000.0,038.2,031.7,010.6,0000.0,0004.97,0017.59,0003.35
2024-05-23 20:06:00,SystemResetWarning,0816.9,4.99,000.00,030.1,029.4,000.0,038.3,031.8,009.6,0000.0,0004.96,0017.69,0003.33
2024-05-23 20:07:00,SystemResetWarning,0816.8,4.99,000.00,030.1,029.5,000.0,038.3,031.9,009.5,0000.0,0004.95,0017.86,0003.33
2024-05-23 20:08:00,SystemResetWarning,0816.8,5.02,000.00,030.2,029.6,000.0,038.3,031.9,009.0,0000.0,0004.90,0017.82,0003.33
2024-05-23 20:09:00,SystemResetWarning,0816.8,5.01,000.00,030.2,029.7,000.0,038.4,032.0,008.5,0000.0,0004.88,0017.06,0003.33
2024-05-23 20:10:00,SystemResetWarning,0816.9,5.00,000.00,030.3,029.8,000.0,038.4,032.0,007.8,0000.0,0004.82,0016.76,0003.31
2024-05-23 20:11:00,SystemResetWarning,0816.9,4.99,000.00,030.3,029.8,000.0,038.4,032.1,007.5,0000.0,0004.75,0018.09,0003.28
2024-05-23 20:12:00,SystemResetWarning,0816.9,5.00,000.00,030.4,029.9,000.0,038.5,032.1,007.7,0000.0,0004.73,0017.98,0003.25
2024-05-23 20:13:00,SystemResetWarning,0816.9,5.01,000.00,030.4,029.9,000.0,038.5,032.2,008.4,0000.0,0004.67,0016.84,0003.22
2024-05-23 20:14:00,SystemResetWarning,0816.9,4.99,000.00,030.4,029.6,000.0,038.5,031.9,007.6,0000.0,0004.60,0015.04,0003.17
2024-05-23 20:15:00,SystemResetWarning,0816.8,4.98,000.00,030.1,027.5,000.0,038.6,030.8,007.2,0000.0,0004.55,0013.85,0003.14
2024-05-23 20:16:00,SystemResetWarning,0816.6,5.03,000.00,029.7,026.3,000.0,038.6,030.2,007.3,0000.0,0004.51,0012.80,0003.12
2024-05-23 20:17:00,SystemResetWarning,0816.6,5.00,000.00,029.5,026.6,000.0,038.5,030.3,007.9,0000.0,0004.51,0012.65,0003.08
2024-05-23 20:18:00,SystemResetWarning,0816.6,5.00,000.00,029.5,027.0,000.0,038.3,030.5,008.5,0000.0,0004.56,0014.28,0003.04
2024-05-23 20:19:00,SystemResetWarning,0816.7,5.00,000.00,029.5,027.4,000.0,038.2,030.8,009.1,0000.0,0004.55,0015.72,0002.98
2024-05-23 20:20:00,SystemResetWarning,0816.8,5.00,000.00,029.5,027.8,000.0,038.2,031.0,008.6,0000.0,0004.53,0016.67,0002.93
2024-05-23 20:21:00,SystemResetWarning,0816.8,4.99,000.00,029.6,028.1,000.0,038.1,031.1,008.0,0000.0,0004.54,0017.45,0002.92
2024-05-23 20:22:00,SystemResetWarning,0816.7,5.00,000.00,029.6,028.4,000.0,038.1,031.2,008.0,0000.0,0004.53,0016.11,0002.91
2024-05-23 20:23:00,SystemResetWarning,0816.7,5.00,000.00,029.7,028.6,000.0,038.1,031.3,008.9,0000.0,0004.50,0015.88,0002.91
2024-05-23 20:24:00,SystemResetWarning,0816.7,5.00,000.00,029.7,028.8,000.0,038.1,031.4,008.3,0000.0,0004.48,0015.74,0002.92
2024-05-23 20:25:00,SystemResetWarning,0816.8,5.01,000.00,029.8,029.0,000.0,038.1,031.5,008.1,0000.0,0004.41,0015.53,0002.91
2024-05-23 20:26:00,SystemResetWarning,0816.7,5.00,000.00,029.8,029.1,000.0,038.1,031.6,008.2,0000.0,0004.39,0015.54,0002.92
2024-05-23 20:27:00,SystemResetWarning,0816.7,5.00,000.00,029.9,029.2,000.0,038.1,031.7,008.2,0000.0,0004.38,0015.53,0002.92
2024-05-23 20:28:00,SystemResetWarning,0816.6,5.00,000.00,030.0,029.4,000.0,038.1,031.7,008.8,0000.0,0004.30,0015.53,0002.94
2024-05-23 20:29:00,SystemResetWarning,0816.7,5.00,000.00,030.0,029.5,000.0,038.2,031.8,008.8,0000.0,0004.26,0014.06,0002.97
2024-05-23 20:30:00,SystemResetWarning,0816.6,4.99,000.00,030.1,029.5,000.0,038.2,031.9,007.7,0000.0,0004.23,0012.04,0002.96
2024-05-23 20:31:00,SystemResetWarning,0816.6,5.00,000.00,030.1,029.6,000.0,038.2,031.9,008.0,0000.0,0004.22,0011.03,0002.97
2024-05-23 20:32:00,SystemResetWarning,0816.6,5.00,000.00,030.2,029.7,000.0,038.3,032.0,008.2,0000.0,0004.23,0010.36,0002.98
2024-05-23 20:33:00,SystemResetWarning,0816.6,5.02,000.00,030.2,029.8,000.0,038.3,032.0,008.2,0000.0,0004.30,0012.38,0002.97
2024-05-23 20:34:00,SystemResetWarning,0816.6,4.99,000.00,030.3,029.8,000.0,038.3,032.1,007.6,0000.0,0004.32,0013.32,0002.97
2024-05-23 20:35:00,SystemResetWarning,0816.6,4.99,000.00,030.3,029.8,000.0,038.4,032.0,007.5,0000.0,0004.36,0013.45,0002.99
2024-05-23 20:36:00,SystemResetWarning,0816.6,5.00,000.00,030.2,028.3,000.0,038.5,031.2,007.4,0000.0,0004.46,0013.92,0003.04
2024-05-23 20:37:00,SystemResetWarning,0816.5,5.01,000.00,029.7,026.3,000.0,038.5,030.2,008.1,0000.0,0004.51,0014.27,0003.08
2024-05-23 20:38:00,SystemResetWarning,0816.5,5.02,000.00,029.5,026.4,000.0,038.4,030.2,007.7,0000.0,0004.50,0014.58,0003.10
2024-05-23 20:39:00,SystemResetWarning,0816.5,5.00,000.00,029.4,026.8,000.0,038.3,030.4,008.2,0000.0,0004.54,0014.26,0003.10
2024-05-23 20:40:00,SystemResetWarning,0816.5,4.99,000.00,029.4,027.3,000.0,038.2,030.7,008.7,0000.0,0004.52,0014.73,0003.11
2024-05-23 20:41:00,SystemResetWarning,0816.6,5.00,000.00,029.4,027.6,000.0,038.1,030.9,007.6,0000.0,0004.52,0014.66,0003.12
2024-05-23 20:42:00,SystemResetWarning,0816.7,5.00,000.00,029.5,028.0,000.0,038.0,031.0,007.6,0000.0,0004.53,0014.67,0003.13
2024-05-23 20:43:00,SystemResetWarning,0816.6,5.01,000.00,029.5,028.3,000.0,038.0,031.1,007.5,0000.0,0004.48,0015.34,0003.13
2024-05-23 20:44:00,SystemResetWarning,0816.5,4.99,000.00,029.6,028.5,000.0,038.0,031.2,007.4,0000.0,0004.44,0013.55,0003.14
2024-05-23 20:45:00,SystemResetWarning,0816.6,5.00,000.00,029.7,028.7,000.0,038.0,031.3,007.7,0000.0,0004.48,0012.83,0003.15
2024-05-23 20:46:00,SystemResetWarning,0816.6,5.02,000.00,029.7,028.9,000.0,038.0,031.4,007.9,0000.0,0004.47,0013.79,0003.14
2024-05-23 20:47:00,SystemResetWarning,0816.6,5.01,000.00,029.8,029.1,000.0,038.0,031.5,007.3,0000.0,0004.48,0013.67,0003.14
2024-05-23 20:48:00,SystemResetWarning,0816.5,5.00,000.00,029.8,029.2,000.0,038.0,031.6,007.4,0000.0,0004.51,0013.53,0003.13
2024-05-23 20:49:00,SystemResetWarning,0816.5,5.00,000.00,029.9,029.3,000.0,038.0,031.7,007.1,0000.0,0004.57,0013.40,0003.14
2024-05-23 20:50:00,SystemResetWarning,0816.5,5.00,000.00,030.0,029.4,000.0,038.1,031.7,007.2,0000.0,0004.58,0013.47,0003.15
2024-05-23 20:51:00,SystemResetWarning,0816.6,4.99,000.00,030.0,029.5,000.0,038.1,031.8,008.0,0000.0,0004.57,0013.24,0003.13
2024-05-23 20:52:00,SystemResetWarning,0816.6,5.00,000.00,030.1,029.6,000.0,038.1,031.9,007.5,0000.0,0004.59,0013.28,0003.13
2024-05-23 20:53:00,SystemResetWarning,0816.5,5.00,000.00,030.1,029.7,000.0,038.2,031.9,007.5,0000.0,0004.58,0013.69,0003.13
2024-05-23 20:54:00,SystemResetWarning,0816.6,5.00,000.00,030.2,029.8,000.0,038.2,032.0,007.8,0000.0,0004.61,0013.05,0003.13
2024-05-23 20:55:00,SystemResetWarning,0816.5,4.98,000.00,030.1,028.6,000.0,038.3,031.3,007.9,0000.0,0004.60,0013.29,0003.12
2024-05-23 20:56:00,SystemResetWarning,0816.4,5.01,000.00,029.8,027.2,000.0,038.3,030.7,007.3,0000.0,0004.57,0014.19,0003.12
2024-05-23 20:57:00,SystemResetWarning,0816.4,5.01,000.00,029.7,027.4,000.0,038.3,030.7,007.4,0000.0,0004.58,0013.41,0003.12
2024-05-23 20:58:00,SystemResetWarning,0816.4,4.99,000.00,029.6,027.8,000.0,038.2,030.9,008.5,0000.0,0004.55,0013.42,0003.12
2024-05-23 20:59:00,SystemResetWarning,0816.4,5.01,000.00,029.7,028.1,000.0,038.1,031.1,008.9,0000.0,0004.50,0013.14,0003.11
